Starlink 30933

operational
NORAD ID: 58410 Int'l Des: 2023-180 Owner: SPXS Country: US Constellation: starlink
LEOCIRCULAR

关于 Starlink 30933

正在加载描述...

实时位置

正在加载3D地球...

即将过境

高度历史

Altitude vs Time

uPlot chart will show altitude changes over time

两行轨道根数

1 58410U 23180J 25300.91484848 .00001056 00000-0 47906-4 0 9990
2 58410 43.0042 296.5862 0001164 250.2074 109.8652 15.27576425109031
Epoch: Oct 27, 2025 • Age: 12 hours

当前状态

高度 487.8 km
速度 7.62 km/s
星下点 -21.76°S, 75.94°E
发射日期 Nov 22, 2023
运行时间 1.9 years
类型 internet

技术详情

分类 Payload
质量 730.00 kg
干质量 700.00 kg
总质量 730.00 kg
长度 0.30 m
直径 4.10 m
跨度 29.00 m
形状 Box + pan
制造商 SPXS
平台类型 Starlink V2M
阶段状态 In Orbit
所有者/国家 SPXS/US

大型星座

Loading constellations...